Location: Asheville, NC
(35.6000°N, 82.5500°W)
Time: 05:42:34
(UTC-04:00)

JUGNU - Pass Details

Date: 08 January 2018
Orbit: 837 x 864 km, 20.0° (Epoch: 20 April)

Event Time Altitude Azimuth Distance (km) Brightness Sun altitude
Rises 20:30:20 0° 243° (WSW) 3,421 ? -35.2°
Reaches altitude 10° 20:35:12 10° 209° (SSW) 2,483 ? -36.2°
Enters shadow 20:36:25 11° 197° (SSW) 2,417 ? -36.4°
